Weather in Reykyavik

Iceland     64°07′33″N   21°50′59″W
temp.,
°C
wind,
m/s
gust,
m/s
humid.,
%
clouds,
%
prec.,
mm/h
press.,
hPa
HPBL,
m
17 june, thu
thu1700:00+5nne456698 0.0 1006682
03:00+4nne3471100 0.0 1007470
06:00+4nne3371100 0.0 1007443
09:00+4nne2371100 0.0 1008719
12:00+5nw1270100 0.1 1009737
15:00+5wnw2282100 0.2 1009551
18:00+5nw2190100 0.6 1009512
21:00+5n3293100 0.4 1010410
18 june, fri
fri1800:00+4n2297100 0.6 1010327
03:00+4nne2295100 0.3 1009301
06:00+4nne2296100 0.8 1010377
09:00+4nne2296100 0.6 1010383
12:00+4n2295100 1.6 1011542
15:00+4n2295100 1.0 1011451
18:00+5n228678 1.2 1011357
21:00+7nnw237665 0.1 1012672
19 june, sat
sat1900:00+6nne337471 0.3 1012325
03:00+5ne337749 0.1 1012167
06:00+5nne227560 0.1 1013191
09:00+6n22645 0.0 1014456
12:00+8nnw33535 0.0 1014905
15:00+8wnw766451 0.0 1014589
18:00+8wnw87658 0.1 1015698
21:00+8wnw76707 0.1 1015467
20 june, sun
sun2000:00+7nw55705 0.1 1016263
03:00+6nw45702 0.0 1017329
06:00+6nw44695 0.0 1017427
09:00+6wnw446940 0.0 1018638
12:00+7w4574100 0.0 1018608
15:00+7w5676100 0.1 1019789
18:00+7wsw557495 0.2 1018749
21:00+7wsw567619 0.1 1018804
21 june, mon
mon2100:00+7ssw578293 0.4 1018662
03:00+7ssw578660 0.7 1017588
06:00+7ssw5786100 1.3 1016606
09:00+8s4675100 0.4 1015880
12:00+9sse6874100 0.6 1014879
15:00+8sse81080100 0.2 10121010
18:00+8se81185100 1.4 10101074
21:00+7ese81288100 3.1 10091055